User: anonymous
Location: Unspecified
(0.0000°N, 0.0000°E)
Time: 17:35:12
(UTC+02:00)
Language:

Cosmos 1626 Rocket - Orbit

View from above orbital plane
View from above orbital plane
View from above satellite
View from above satellite

Ground track
Ground track

The orbit data is extracted from the following two-line orbital elements,

1 15495U 85009B   14259.52882176  .00000445  00000-0  51261-4 0  8795
2 15495 082.5247 048.2695 0021056 047.7423 312.5573 14.83276805601006
Epoch (UTC): 16 September 2014 12:41:30
Eccentricity: 0.0021056
inclination: 82.5247°
perigee height: 604 km
apogee height: 634 km
right ascension of ascending node: 48.2695°
argument of perigee: 47.7423°
revolutions per day: 14.83276805
mean anomaly at epoch: 312.5573°
orbit number at epoch: 60100

The dashed part of the orbit path shows where the satellite is in the earth's shadow,  

DLR